Change the Weather History Date:

Saturday, January 18, 2014

  Actual Average (KAMG) Record (KAMG)
Temperature  
Mean Temperature 43 °F 51 °F  
Max Temperature 53 °F 62 °F 79 °F (1949)
Min Temperature 33 °F 40 °F 17 °F (1959)
Degree Days  
Heating Degree Days 22 15  
Month to date heating degree days 270  
Since 1 July heating degree days 910  
Cooling Degree Days 0 0  
Month to date cooling degree days 0  
Year to date cooling degree days 0  
Moisture  
Dew Point 25 °F    
Average Humidity 48    
Maximum Humidity 75    
Minimum Humidity 33    
Precipitation  
Precipitation 0.00 in 0.13 in 2.04 in (1955)
Month to date precipitation 2.37  
Year to date precipitation 2.37  
Snow  
Snow 0.00 in 0.00 in 0.00 in ()
Month to date snowfall 0.0  
Since 1 July snowfall 0.1  
Snow Depth -    
Sea Level Pressure  
Sea Level Pressure 30.17 in    
Wind  
Wind Speed 8 mph (West)    
Max Wind Speed 15 mph    
Max Gust Speed 21 mph    
Visibility 10 miles    
Events      
T = Trace of Precipitation, MM = Missing Value Source: NWS Daily Summary

Daily Weather History Graph

Daily Weather History Graph

Search for Another Location

Airport or City:

Trip Planner

Search our weather history database for the weather conditions in past years. The results will help you decide how hot, cold, wet, or windy it might be!

Date:

Astronomy

Jan. 18, 2014 Rise Set
Actual Time 7:28 AM EST 5:52 PM EST
Civil Twilight 7:02 AM EST 6:18 PM EST
Nautical Twilight 6:32 AM EST 6:47 PM EST
Astronomical Twilight 6:03 AM EST 7:16 PM EST
Moon 8:20 PM EST (1/18) 8:38 AM EST (1/18)
Length of Visible Light 11h 16m
Length of Day
10h 24m
Waning Gibbous, 94% of the Moon is Illuminated
Jan 18
Waning Gibbous
Jan 24
Last Quarter
Jan 30
New
Feb 6
First Quarter
Feb 14
Full

Hourly Weather History & Observations

Time (EST) Temp. Windchill Dew Point Humidity Pressure Visibility Wind Dir Wind Speed Gust Speed Precip Events Conditions
12:15 AM 48.2 °F - 28.4 °F 46% 30.07 in 10.0 mi WNW 8.1 mph - N/A   Unknown
12:35 AM 48.2 °F - 28.4 °F 46% 30.08 in 10.0 mi WNW 9.2 mph - N/A   Unknown
12:55 AM 48.2 °F - 26.6 °F 43% 30.08 in 10.0 mi WNW 11.5 mph - N/A   Unknown
1:15 AM 48.2 °F - 26.6 °F 43% 30.09 in 10.0 mi WNW 12.7 mph 16.1 mph N/A   Unknown
1:35 AM 46.4 °F 42.4 °F 24.8 °F 43% 30.09 in 10.0 mi WNW 8.1 mph - N/A   Unknown
1:55 AM 46.4 °F 41.5 °F 24.8 °F 43% 30.10 in 10.0 mi WNW 10.4 mph 17.3 mph N/A   Unknown
2:15 AM 46.4 °F 41.5 °F 24.8 °F 43% 30.11 in 10.0 mi WNW 10.4 mph - N/A   Unknown
2:35 AM 44.6 °F 39.7 °F 23.0 °F 43% 30.12 in 10.0 mi WNW 9.2 mph 19.6 mph N/A   Unknown
2:55 AM 44.6 °F 39.2 °F 24.8 °F 46% 30.13 in 10.0 mi WNW 10.4 mph - N/A   Unknown
3:15 AM 44.6 °F 39.2 °F 24.8 °F 46% 30.14 in 10.0 mi West 10.4 mph 17.3 mph N/A   Unknown
3:35 AM 42.8 °F 37.0 °F 24.8 °F 49% 30.14 in 10.0 mi WNW 10.4 mph 16.1 mph N/A   Unknown
3:55 AM 42.8 °F 37.5 °F 23.0 °F 46% 30.15 in 10.0 mi WNW 9.2 mph - N/A   Unknown
4:15 AM 41.0 °F 35.2 °F 21.2 °F 45% 30.15 in 10.0 mi WNW 9.2 mph - N/A   Unknown
4:35 AM 41.0 °F 34.7 °F 21.2 °F 45% 30.16 in 10.0 mi WNW 10.4 mph - N/A   Unknown
4:55 AM 39.2 °F 34.2 °F 21.2 °F 49% 30.16 in 10.0 mi WNW 6.9 mph - N/A   Unknown
5:15 AM 39.2 °F 33.6 °F 21.2 °F 49% 30.17 in 10.0 mi WNW 8.1 mph - N/A   Unknown
5:35 AM 37.4 °F 32.1 °F 21.2 °F 52% 30.18 in 10.0 mi WNW 6.9 mph - N/A   Unknown
5:55 AM 37.4 °F 32.8 °F 23.0 °F 56% 30.19 in 10.0 mi WNW 5.8 mph - N/A   Unknown
6:15 AM 37.4 °F 31.4 °F 23.0 °F 56% 30.19 in 10.0 mi NW 8.1 mph - N/A   Unknown
6:35 AM 35.6 °F 31.7 °F 23.0 °F 60% 30.20 in 10.0 mi WNW 4.6 mph - N/A   Unknown
6:55 AM 35.6 °F 30.7 °F 23.0 °F 60% 30.20 in 10.0 mi NW 5.8 mph - N/A   Unknown
7:15 AM 35.6 °F 32.8 °F 23.0 °F 60% 30.21 in 10.0 mi WSW 3.5 mph - N/A   Unknown
7:35 AM 33.8 °F 30.8 °F 24.8 °F 70% 30.21 in 10.0 mi SW 3.5 mph - N/A   Unknown
7:55 AM 33.8 °F - 24.8 °F 70% 30.21 in 10.0 mi Calm Calm - N/A   Unknown
8:15 AM 35.6 °F 31.7 °F 24.8 °F 65% 30.22 in 10.0 mi West 4.6 mph - N/A   Unknown
8:35 AM 37.4 °F 34.9 °F 24.8 °F 60% 30.22 in 10.0 mi West 3.5 mph - N/A   Unknown
8:55 AM 39.2 °F 34.2 °F 24.8 °F 56% 30.24 in 10.0 mi West 6.9 mph - N/A   Unknown
9:15 AM 41.0 °F 35.8 °F 24.8 °F 53% 30.24 in 10.0 mi WNW 8.1 mph - N/A   Unknown
9:35 AM 42.8 °F 37.5 °F 24.8 °F 49% 30.24 in 10.0 mi NW 9.2 mph - N/A   Unknown
9:55 AM 44.6 °F 38.4 °F 23.0 °F 43% 30.25 in 10.0 mi NW 12.7 mph 20.7 mph N/A   Unknown
10:15 AM 44.6 °F 38.1 °F 23.0 °F 43% 30.25 in 10.0 mi West 13.8 mph - N/A   Unknown
10:35 AM 46.4 °F 40.4 °F 23.0 °F 40% 30.26 in 10.0 mi WNW 13.8 mph 19.6 mph N/A   Unknown
10:55 AM 46.4 °F 41.1 °F 21.2 °F 37% 30.26 in 10.0 mi WNW 11.5 mph 19.6 mph N/A   Unknown
11:15 AM 46.4 °F 41.5 °F 23.0 °F 40% 30.25 in 10.0 mi WNW 10.4 mph - N/A   Unknown
11:35 AM 48.2 °F - 23.0 °F 37% 30.24 in 10.0 mi WNW 12.7 mph - N/A   Unknown
11:55 AM 48.2 °F - 24.8 °F 40% 30.23 in 10.0 mi WNW 13.8 mph - N/A   Unknown
12:15 PM 48.2 °F - 24.8 °F 40% 30.22 in 10.0 mi West 8.1 mph - N/A   Unknown
12:35 PM 50.0 °F - 24.8 °F 37% 30.20 in 10.0 mi WSW 10.4 mph - N/A   Unknown
12:55 PM 50.0 °F - 24.8 °F 37% 30.19 in 10.0 mi West 11.5 mph 19.6 mph N/A   Unknown
1:15 PM 51.8 °F - 24.8 °F 35% 30.18 in 10.0 mi WNW 11.5 mph 18.4 mph N/A   Unknown
1:35 PM 51.8 °F - 24.8 °F 35% 30.17 in 10.0 mi WNW 11.5 mph 19.6 mph N/A   Unknown
1:55 PM 51.8 °F - 24.8 °F 35% 30.16 in 10.0 mi West 12.7 mph 18.4 mph N/A   Unknown
2:15 PM 53.6 °F - 24.8 °F 33% 30.16 in 10.0 mi WNW 10.4 mph 17.3 mph N/A   Unknown
2:35 PM 53.6 °F - 24.8 °F 33% 30.16 in 10.0 mi WNW 15.0 mph - N/A   Unknown
2:55 PM 53.6 °F - 24.8 °F 33% 30.16 in 10.0 mi NW 6.9 mph 11.5 mph N/A   Unknown
3:15 PM 53.6 °F - 24.8 °F 33% 30.15 in 10.0 mi NW 10.4 mph 17.3 mph N/A   Unknown
3:35 PM 53.6 °F - 24.8 °F 33% 30.15 in 10.0 mi West 11.5 mph - N/A   Unknown
3:55 PM 53.6 °F - 24.8 °F 33% 30.15 in 10.0 mi WNW 8.1 mph - N/A   Unknown
4:15 PM 53.6 °F - 24.8 °F 33% 30.15 in 10.0 mi West 10.4 mph - N/A   Unknown
4:35 PM 51.8 °F - 23.0 °F 33% 30.16 in 10.0 mi NW 8.1 mph - N/A   Unknown
4:55 PM 51.8 °F - 23.0 °F 33% 30.16 in 10.0 mi West 8.1 mph - N/A   Unknown
5:15 PM 51.8 °F - 24.8 °F 35% 30.16 in 10.0 mi WNW 5.8 mph - N/A   Unknown
5:35 PM 50.0 °F - 24.8 °F 37% 30.16 in 10.0 mi West 4.6 mph - N/A   Unknown
5:55 PM 48.2 °F - 24.8 °F 40% 30.16 in 10.0 mi West 5.8 mph - N/A   Unknown
6:15 PM 46.4 °F 44.3 °F 24.8 °F 43% 30.15 in 10.0 mi West 4.6 mph - N/A   Unknown
6:35 PM 46.4 °F 45.2 °F 24.8 °F 43% 30.15 in 10.0 mi WSW 3.5 mph - N/A   Unknown
6:55 PM 42.8 °F 40.1 °F 26.6 °F 53% 30.15 in 10.0 mi WSW 4.6 mph - N/A   Unknown
7:15 PM 42.8 °F 41.1 °F 26.6 °F 53% 30.16 in 10.0 mi WSW 3.5 mph - N/A   Unknown
7:35 PM 42.8 °F - 26.6 °F 53% 30.15 in 10.0 mi Calm Calm - N/A   Unknown
7:55 PM 39.2 °F - 28.4 °F 65% 30.15 in 10.0 mi Calm Calm - N/A   Unknown
8:15 PM 41.0 °F 38.0 °F 26.6 °F 57% 30.15 in 10.0 mi SW 4.6 mph - N/A   Unknown
8:35 PM 39.2 °F 37.0 °F 26.6 °F 61% 30.16 in 10.0 mi SW 3.5 mph - N/A   Unknown
8:55 PM 39.2 °F 37.0 °F 26.6 °F 61% 30.16 in 10.0 mi SW 3.5 mph - N/A   Unknown
9:15 PM 39.2 °F - 28.4 °F 65% 30.16 in 10.0 mi Calm Calm - N/A   Unknown
9:35 PM 39.2 °F 37.0 °F 28.4 °F 65% 30.16 in 10.0 mi SSW 3.5 mph - N/A   Unknown
10:15 PM 39.2 °F 37.0 °F 26.6 °F 61% 30.16 in 10.0 mi SW 3.5 mph - N/A   Unknown
10:35 PM 37.4 °F 32.1 °F 26.6 °F 65% 30.16 in 10.0 mi SW 6.9 mph - N/A   Unknown
10:55 PM 37.4 °F 32.8 °F 26.6 °F 65% 30.16 in 10.0 mi SW 5.8 mph - N/A   Unknown
11:15 PM 37.4 °F 32.1 °F 28.4 °F 70% 30.14 in 10.0 mi SSW 6.9 mph - N/A   Unknown
11:35 PM 37.4 °F 32.8 °F 30.2 °F 75% 30.14 in 10.0 mi SSW 5.8 mph - N/A   Unknown
11:55 PM 37.4 °F 33.8 °F 28.4 °F 70% 30.14 in 10.0 mi SW 4.6 mph - N/A   Unknown